Home > Time Zones > World Clock > Weather > Iran > Tehran > Past weeks

Flag for Iran Weather past 2 weeks in Tehran, Iran

Now
57 °F

Clear.


Feels Like: 55 °F
Forecast: 47 / 70 °F
Wind: 12 mph from Northwest

Location: Tehran-Mehrabad

Current Time: Apr 25, 2015 at 11:09:08 PM

Latest Report: Apr 25, 2015 at 10:30 PM


Visibility: 10 mi

Pressure: 30.09 "Hg

Humidity: 20%

Dew point: 16 °F

Location of TehranLocation

Historic Weather in Tehran — Graph

°F

Tehran temperature yesterday

Maximum temperature yesterday: 77 °F (at 3:00 PM)
Minimum temperature yesterday: 68 °F (at 2:00 AM)
Average temperature yesterday: 73 °F

Past Weeks' High & Low Weather Summary

 TemperatureHumidityPressure
High86 °F (Apr 22, 6:00 PM)88% (Apr 11, 2:30 PM)30.21 "Hg (Apr 11, 2:30 PM)
Low50 °F (Apr 14, 5:00 AM)8% (Apr 22, 6:00 PM)29.77 "Hg (Apr 22, 5:00 PM)
Average66 °F25%29.99 "Hg
* Reported Apr 10 9:30 PM — Apr 25 10:00 PM, Tehran, Weather by CustomWeather, © 2015

Note: Actual official high and low records may vary slightly from our data, if they occured in-between our weather recording intervals... More about our weather records

Advertising

Tehran weather history for previous 24 hours

 ConditionsComfort  
Time TempWeatherWind HumidityBarometerVisibility
10:00 PM
Sat, Apr 25
57 °FClear.9 mph20%30.09 "Hg10 mi
9:30 PM59 °FClear.12 mph13%30.07 "Hg10 mi
9:00 PM59 °FSunny.18 mph13%30.07 "Hg10 mi
8:30 PM59 °FSunny.21 mph13%30.04 "Hg10 mi
8:00 PM61 °FSunny.22 mph12%30.04 "Hg10 mi
7:30 PM61 °FSunny.25 mph13%30.04 "Hg10 mi
7:00 PM63 °FPassing clouds.28 mph14%30.01 "HgN/A
6:30 PM63 °FPassing clouds.25 mph13%30.01 "HgN/A
6:00 PM63 °FPassing clouds.37 mph14%30.01 "HgN/A
5:30 PM63 °FPassing clouds.32 mph14%29.98 "HgN/A
5:00 PM63 °FPassing clouds.25 mph14%29.98 "HgN/A
4:30 PM64 °FPassing clouds.32 mph14%29.98 "HgN/A
4:00 PM64 °FSunny.30 mph14%29.98 "Hg10 mi
3:30 PM63 °FSunny.35 mph15%29.98 "Hg10 mi
3:00 PM64 °FSunny.32 mph13%29.98 "Hg10 mi
2:30 PM63 °FPassing clouds.32 mph13%30.01 "HgN/A
2:00 PM61 °FPassing clouds.32 mph13%30.01 "HgN/A
1:30 PM61 °FPassing clouds.35 mph13%30.01 "HgN/A
1:00 PM61 °FSunny.30 mph12%30.01 "Hg10 mi
12:30 PM61 °FSunny.28 mph13%30.01 "Hg10 mi
12:00 PM61 °FPassing clouds.28 mph12%30.01 "HgN/A
11:30 AM61 °FSunny.25 mph11%30.01 "Hg10 mi
11:00 AM61 °FSunny.32 mph12%30.01 "Hg10 mi
10:30 AM61 °FSunny.30 mph11%29.98 "Hg10 mi
10:00 AM61 °FSunny.28 mph11%29.98 "Hg10 mi
9:30 AM61 °FSunny.21 mph9%29.98 "Hg10 mi
9:00 AM59 °FSunny.21 mph9%29.98 "Hg10 mi
8:30 AM59 °FSunny.23 mph8%29.95 "Hg10 mi
8:00 AM57 °FSunny.21 mph9%29.95 "Hg10 mi
7:30 AM55 °FClear.16 mph12%29.92 "Hg10 mi
7:00 AM54 °FClear.16 mph14%29.92 "Hg10 mi
6:30 AM57 °FPassing clouds.16 mph11%29.92 "HgN/A
6:00 AM59 °FPassing clouds.18 mph11%29.89 "Hg5 mi
5:30 AM59 °FPassing clouds.16 mph11%29.89 "Hg4 mi
5:00 AM59 °FPassing clouds.18 mph13%29.89 "Hg4 mi
3:30 AM61 °FPassing clouds.18 mph15%29.86 "Hg4 mi
3:00 AM63 °FPassing clouds.21 mph14%29.86 "Hg4 mi
2:00 AM72 °FPassing clouds.25 mph16%29.86 "Hg4 mi
1:30 AM72 °FPassing clouds.14 mph16%29.86 "Hg4 mi
1:00 AM72 °FPassing clouds.14 mph19%29.86 "Hg4 mi
12:30 AM72 °FPassing clouds.12 mph20%29.86 "Hg4 mi
12:00 AM72 °FPassing clouds.12 mph20%29.86 "Hg4 mi
11:30 PM
Fri, Apr 24
73 °FPassing clouds.14 mph19%29.86 "Hg4 mi
11:00 PM75 °FPassing clouds.14 mph18%29.86 "Hg4 mi
Weather by CustomWeather, © 2015

See weather overviewHow to use our weather pages